Location: Ecklingerode
(51.5036°N, 10.3122°E)
Time: 00:52:05
(UTC+00:00)

BREEZE-M R/B - Pass Details

Date: 29 October 2020
Orbit: 310 x 4523 km, 49.7° (Epoch: 23 November)

Event Time Altitude Azimuth Distance (km) Brightness Sun altitude
Rises 17:47:44 0° 275° (W) 2,496 7.9 -17.8°
Reaches altitude 10° 17:49:20 10° 272° (W) 1,822 6.8 -18.0°
Maximum altitude 17:53:14 66° 190° (S) 886 3.8 -18.6°
Enters shadow 17:57:04 27° 116° (ESE) 2,027 5.1 -19.2°
